Location: R�o de Cab�
(42.2180°N, 1.3319°E)
Time: 12:00:27
(UTC+00:00)

Daily predictions for brighter satellites

Satellite Brightness Start Highest point End
(mag) Time Altitude Azimuth Time Altitude Azimuth Time Altitude Azimuth
USA 238 DEB 3.6 19:54:30 10° SSW 20:00:59 75° ESE 20:07:48 10° NE
USA 238 3.6 19:54:37 10° SSW 20:01:05 74° ESE 20:07:53 10° NE
SL-16 R/B 2.7 19:57:46 10° S 20:02:55 38° ESE 20:08:07 10° NE
Cosmos 2360 Rocket 3.7 20:01:27 10° SE 20:04:57 17° E 20:08:27 10° ENE
Cosmos 1766 3.4 20:01:16 10° N 20:05:08 77° W 20:08:59 10° S
Cosmos 2322 Rocket 3.0 20:00:58 10° SSE 20:05:53 31° ESE 20:10:50 10° NE
Genesis I 3.4 20:05:16 10° SSW 20:08:57 49° ESE 20:12:45 10° NE
Cosmos 1934 Rocket 4.0 20:03:12 10° N 20:09:20 81° E 20:15:30 10° S
Cosmos 2278 4.4 20:05:25 10° SW 20:11:04 62° WNW 20:16:42 10° NNE
Cosmos 2227 4.4 20:05:49 10° NNW 20:11:24 60° ENE 20:16:57 10° SE
CENTAUR R/B 2.5 20:07:07 10° SSW 20:12:52 84° ESE 20:19:45 10° NE
Meteor 1-21 4.5 20:07:43 10° SSE 20:13:11 50° E 20:18:36 10° NNE
Cosmos 676 Rocket 4.3 20:10:09 10° NNW 20:15:25 57° ENE 20:20:40 10° SE
SJ-6B 4.1 20:11:32 10° S 20:15:26 41° W 20:19:19 10° NNW
Cosmos 1470 3.2 20:12:28 10° N 20:16:19 46° ENE 20:20:07 10° SSE
Cosmos 1954 Rocket 4.2 20:11:09 10° NNW 20:16:26 60° ENE 20:21:40 10° SSE
Ariane Rocket 3.1 20:12:10 10° SSE 20:17:16 82° WSW 20:22:24 10° NNW
SL-24 DEB 4.5 20:14:57 10° S 20:19:41 78° W 20:24:27 10° N
Cosmos 1980 Rocket 3.7 20:18:55 10° SW 20:24:14 42° WNW 20:29:34 10° NNE
Cosmos 1674 4.3 20:22:24 11° SE 20:24:46 17° E 20:27:15 10° NE
Cosmos 1315 Rocket 3.2 20:22:42 10° N 20:26:46 52° ENE 20:30:42 10° SSE
Okean 1 Rocket 3.1 20:26:30 10° N 20:30:52 69° E 20:35:13 10° SSE
Resurs 1-3 4.3 20:27:38 10° S 20:31:55 54° W 20:36:15 10° NNW
Cosmos 1140 Rocket 4.3 20:27:12 10° NNW 20:32:17 50° WSW 20:37:19 10° S
Cosmos 1727 Rocket 4.3 20:27:19 10° SSE 20:33:23 51° E 20:39:27 10° NNE
Cosmos 1455 Rocket 4.5 20:30:15 10° NNE 20:33:53 24° ENE 20:36:54 13° ESE
Cosmos 1378 Rocket 4.0 20:34:52 10° SSW 20:39:10 66° W 20:43:31 10° N
Cosmos 220 Rocket 4.4 20:35:50 10° SSW 20:40:06 65° WNW 20:44:22 10° NNE
Cosmos 1605 Rocket 4.1 20:33:42 10° N 20:40:09 89° ENE 20:46:31 10° S
OBJECT-B 3.7 20:39:03 10° SW 20:40:46 14° W 20:42:31 10° WNW
BREEZE-M DEB (TANK) 2.0 20:39:14 10° SW 20:41:30 64° SE 20:45:09 10° ENE
Meteor 2-10 4.3 20:37:19 10° NNW 20:42:20 67° W 20:47:26 10° S
Cosmos 1726 2.0 20:39:16 10° N 20:42:55 85° W 20:46:24 11° S
Cosmos 2285 Rocket 4.1 20:36:32 10° SSW 20:42:59 88° WNW 20:49:28 10° NNE
Cosmos 1844 Rocket 3.9 20:38:18 10° N 20:43:13 29° NE 20:47:39 12° ESE
Okean 2 3.8 20:40:44 10° SSW 20:44:47 65° W 20:48:51 10° N
Cosmos 1758 3.3 20:41:11 10° N 20:45:09 63° E 20:48:22 15° SSE
Meteor 2-20 4.4 20:41:34 10° S 20:47:40 83° E 20:53:46 10° N
Cosmos 292 Rocket 3.8 20:43:52 10° SSW 20:48:42 89° WNW 20:53:34 10° NNE
Cosmos 1908 4.4 20:49:05 10° NNE 20:52:27 27° ENE 20:54:25 18° ESE
Lacrosse 5 rocket 2.1 20:49:32 10° S 20:52:36 24° SE 20:55:36 10° ENE
Cosmos 2263 Rocket 2.9 20:50:49 10° NNW 20:56:20 52° WSW 21:01:43 10° S
SPOT 5 3.8 20:53:08 16° SE 20:56:43 38° ENE 21:01:18 10° N
Cosmos 1707 3.1 20:54:39 10° SSW 20:58:29 66° W 21:02:22 10° N
Cosmos 1452 Rocket 3.5 20:55:06 10° SSW 21:00:23 84° ESE 21:05:41 10° NNE
In-Cosmos 22 4.0 21:00:55 10° S 21:06:12 87° E 21:11:31 10° N
Resurs 01 Rocket 2.8 21:04:13 10° SSW 21:08:19 38° W 21:12:26 10° NNW
Terra 2.8 21:06:08 19° ESE 21:08:51 33° ENE 21:13:07 10° N
SPOT 1/Viking Rocket 3.6 21:05:01 15° S 21:09:20 78° WSW 21:14:30 10° NNW
Cosmos 1459 Rocket 4.2 21:04:35 10° N 21:10:31 55° ENE 21:14:34 21° SSE
Cosmos 2333 Rocket 3.2 21:09:00 20° SE 21:11:34 28° ESE 21:16:21 10° NE
Cosmos 1025 Rocket 3.6 21:10:01 23° SSE 21:12:14 40° E 21:16:21 10° NNE
Cosmos 1850 Rocket 4.1 21:07:14 10° NNW 21:12:33 70° ENE 21:15:54 23° SSE
Lacrosse 5 2.0 21:07:57 10° NW 21:12:59 67° SW 21:16:06 23° SSE
Cosmos 1953 2.5 21:09:06 10° N 21:13:07 56° E 21:15:11 26° SSE
CARTOSAT-1 3.5 21:10:58 22° SSE 21:13:41 75° ENE 21:18:00 10° N
USA 245 4.0 21:11:38 18° S 21:15:04 76° WSW 21:20:37 10° NNW
Cosmos 1000 Rocket 4.5 21:10:37 15° S 21:15:43 64° E 21:21:47 10° NNE
Geosat 4.0 21:15:06 23° SE 21:18:19 78° ENE 21:23:21 10° NNW
SL-14 R/B 4.4 21:17:36 25° ESE 21:18:41 28° E 21:22:10 10° NNE
FALCON 9 DEB 3.1 21:16:59 10° SW 21:20:24 84° NW 21:23:50 10° NE
Spot 2 Rocket 3.5 21:17:52 20° SSE 21:21:22 85° WSW 21:26:29 10° NNW
Cosmos 1975 Rocket 3.1 21:18:22 14° S 21:22:05 80° W 21:26:29 10° N
ATLAS 3B R/B 3.0 21:18:04 14° S 21:23:10 40° ESE 21:29:19 10° NE
Cosmos 1331 Rocket 4.0 21:22:13 16° S 21:26:22 64° ESE 21:31:36 10° NNE
Cosmos 2219 Rocket 3.0 21:24:39 24° SE 21:26:44 31° ESE 21:31:41 10° NE
Cosmos 1844 4.1 21:21:45 10° NNW 21:27:10 50° ENE 21:30:18 24° SE
ERS-1 Rocket 3.0 21:24:38 25° SSE 21:27:36 74° ENE 21:32:38 10° N
Cosmos 1626 2.2 21:27:13 34° SSE 21:28:34 58° E 21:32:12 10° NNE
Cosmos 1461 3.2 21:25:04 10° NNW 21:29:12 53° NE 21:30:58 29° ESE
Meteor 2-11 Rocket 4.5 21:23:37 10° N 21:29:44 70° E 21:33:25 25° SSE
Aureole 1 Rocket 4.1 21:29:54 10° NNW 21:35:48 75° ENE 21:40:16 26° SSE
Cosmos 2123 Rocket 4.1 21:34:03 24° SSE 21:37:51 60° E 21:44:04 10° NNE
SL-8 R/B 4.2 21:33:43 10° WNW 21:38:26 57° NNE 21:41:58 17° E
BREEZE-M DEB (TANK) 1.8 21:36:00 10° NW 21:38:59 62° NNE 21:39:07 59° ENE
BREEZE-M DEB (TANK) 1.5 21:36:49 10° WSW 21:39:12 84° NNW 21:43:33 10° ENE
KORONAS-FOTON 4.5 21:36:31 17° SSW 21:39:17 52° W 21:43:00 10° N
ATLAS 2A CENTAUR R/B 4.4 21:37:09 10° SW 21:41:53 14° SSW 21:42:00 14° S
Cosmos 2237 Rocket 4.2 21:42:20 11° E 21:42:20 11° E 21:43:45 10° E
ATLAS CENTAUR R/B 2.8 21:40:19 10° NNW 21:44:14 32° NE 21:46:25 21° E
Cosmos 1302 Rocket 4.3 21:42:29 31° SSE 21:44:30 46° ESE 21:49:31 10° NNE
Cosmos 1741 Rocket 4.2 21:39:26 10° NNW 21:44:39 64° WSW 21:47:27 27° S
ARIANE 5 R/B 3.2 21:43:35 24° SSW 21:46:01 51° W 21:50:25 10° NNW
USA 215 3.3 21:40:12 10° NE 21:46:35 54° SE 21:52:57 10° SSW
SL-16 R/B 3.9 21:41:58 10° WSW 21:47:03 33° NW 21:52:09 10° N
Celestis-02/Orion 38 4.5 21:45:21 32° SSE 21:47:47 88° ENE 21:52:57 10° NNW
Cosmos 2360 Rocket 2.5 21:42:41 10° SSW 21:48:18 68° WNW 21:53:57 10° NNE
Cosmos 2322 Rocket 3.5 21:44:26 10° SW 21:49:46 40° WNW 21:55:08 10° N
Cosmos 2100 Rocket 4.3 21:44:13 10° NNW 21:50:33 67° W 21:54:46 22° S
Centaur D AC-29 3.6 21:28:50 10° W 21:56:31 32° SSW 21:59:44 25° S
Cosmos 1674 4.4 21:57:09 12° SW 22:00:01 28° WNW 22:03:16 10° NNW
COSMOS 2428 2.9 22:01:02 35° SSE 22:03:05 51° ESE 22:08:38 10° NE
Cosmos 389 Rocket 4.4 22:01:03 10° NNE 22:03:30 18° ENE 22:03:30 18° ENE
SL-08 R/B 4.5 21:59:33 10° N 22:05:58 86° E 22:08:59 34° S
Cosmos 2322 3.6 22:02:41 25° SSW 22:06:02 79° ESE 22:11:42 10° NNE
CZ-4B DEB 4.3 22:06:05 62° WSW 22:06:14 64° W 22:09:23 10° NNW
Cosmos 1544 Rocket 4.0 22:02:28 10° NNW 22:06:52 57° W 22:08:31 34° SSW
H-2A R/B 3.5 22:03:53 10° N 22:07:58 76° WNW 22:09:25 39° SSW
Cosmos 1300 2.5 22:06:20 10° N 22:10:09 75° E 22:10:36 65° SE
Cosmos 2016 Rocket 4.0 22:06:57 10° NNW 22:13:01 72° W 22:16:04 31° S
Cosmos 2278 Rocket 3.7 22:10:41 10° N 22:15:31 28° NE 22:18:27 18° E
Cosmos 1346 Rocket 3.4 22:19:17 42° E 22:19:17 42° E 22:22:59 10° NNE
USA 267 4.3 22:13:17 10° E 22:19:18 41° NNE 22:25:20 10° NW
Cosmos 1725 Rocket 4.1 22:18:18 10° NNW 22:24:27 69° W 22:27:17 33° SSW
Meteor 2-5 Rocket 3.7 22:24:44 34° SSW 22:27:15 77° W 22:32:52 10° N
Cosmos 1844 Rocket 3.4 22:21:54 10° NW 22:27:16 44° WSW 22:29:18 32° SSW
Cosmos 1340 3.8 22:26:36 30° WSW 22:27:47 38° WNW 22:31:21 10° N
Lacrosse 5 rocket 2.5 22:28:08 10° WSW 22:31:33 36° NW 22:34:54 10° NNE
Cosmos 968 Rocket 3.5 22:27:07 10° NNW 22:32:14 68° ENE 22:33:31 48° SE
Cosmos 1992 Rocket 4.2 22:32:39 48° SE 22:33:25 52° ESE 22:38:28 10° NNE
Cosmos 405 3.9 22:32:36 10° NNW 22:35:50 38° W 22:35:50 38° W
Cosmos 1536 Rocket 4.5 22:35:24 29° SW 22:37:09 43° WNW 22:41:25 10° N
Cosmos 1900 4.5 22:32:50 10° NW 22:37:38 57° WSW 22:38:26 50° SSW
GEOS 3 Rocket 3.8 22:36:02 39° ESE 22:38:00 71° NE 22:43:20 10° NNW
Terra 3.3 22:45:01 22° SW 22:46:37 26° W 22:50:36 10° NW
DNEPR-1 R/B 3.5 22:46:11 10° NW 22:50:23 66° WSW 22:50:34 65° SW
Cosmos 1980 3.9 22:50:46 47° SE 22:51:28 49° ESE 22:56:56 10° NE
Cosmos 2333 Rocket 3.2 22:50:55 14° SW 22:55:35 44° WNW 23:01:04 10° NNE
Cosmos 2228 3.1 22:56:41 10° NNW 23:01:05 67° W 23:01:23 64° WSW
BREEZE-M DEB (TANK) 3.0 22:53:07 10° WSW 23:04:03 88° SSE 23:07:19 10° ENE
Okean 1-7 Rocket 4.2 23:06:13 43° E 23:06:13 43° E 23:10:20 10° NNE
Cosmos 2219 Rocket 3.4 23:06:18 15° WSW 23:10:33 39° WNW 23:15:52 10° N
ATLAS 3B R/B 3.6 23:07:34 10° WSW 23:13:47 43° NW 23:20:12 10° NNE
Meteor 2-10 Rocket 4.0 23:13:15 10° NNW 23:18:06 45° W 23:18:54 42° WSW
Cosmos 1503 Rocket 4.0 23:12:56 10° NNW 23:18:21 76° ENE 23:19:20 59° SE
SL-16 R/B 3.4 23:20:20 27° ESE 23:20:25 27° ESE 23:25:07 10° NE
SL-8 R/B 4.5 23:16:23 10° WNW 23:19:54 38° WSW 23:19:54 38° WSW
Iridium 2 4.5 23:22:59 45° WNW 23:22:59 45° WNW 23:26:20 10° N
ATLAS CENTAUR R/B 2.8 23:19:10 10° NW 23:22:33 30° W 23:22:33 30° W
Cosmos 2237 Rocket 2.1 23:24:07 58° SSW 23:25:18 87° ESE 23:30:57 10° NNE
Cosmos 2058 Rocket 2.9 23:21:04 10° N 23:25:33 85° E 23:25:34 85° E
ATLAS CENTAUR R/B 2.9 23:25:37 55° S 23:26:38 65° SE 23:37:48 10° NE
USA 215 4.0 23:23:17 10° NE 23:29:34 51° NNW 23:35:49 10° WSW
Tsikada Rocket 4.4 23:28:42 41° SE 23:30:06 47° E 23:35:58 10° NNE
Spot 4 4.4 23:31:30 44° WSW 23:31:51 45° W 23:36:27 10° NNW
Cosmos 1867 3.5 23:26:51 10° NW 23:32:18 68° WSW 23:32:53 62° SSW
Cosmos 1726 Rocket 4.2 23:31:19 10° NNW 23:35:33 44° W 23:35:38 44° W
Thor Agena Rocket 3.8 23:30:53 10° NNE 23:36:01 53° E 23:36:27 51° ESE
MINOTAUR IV R/B 4.5 23:36:27 84° E 23:36:27 84° E 23:40:58 10° NNE
GP-B 4.0 23:32:54 10° NNE 23:37:01 36° E 23:37:02 36° E
Cosmos 1455 3.1 23:34:24 10° NNW 23:37:30 43° WNW 23:37:30 43° WNW
Meteor 1-21 Rocket 4.2 23:39:35 58° SSW 23:40:43 80° WNW 23:46:26 10° N
Meteor 1-4 Rocket 3.7 23:42:18 10° N 23:44:51 38° NE 23:44:51 38° NE
ALOS 2 3.1 23:49:12 49° W 23:49:12 49° W 23:53:18 10° NNW
Meteor 1-11 4.5 23:52:26 49° SE 23:53:19 54° E 23:58:45 10° NNE
SJ 16-02 2.7 23:52:11 10° N 23:56:06 31° ENE 23:57:01 28° E
